Regional Weather Roundup
Issued by NWS State College, PA

Home | Current Version | Previous Version | Graphics & Text | Print | Product List | Glossary Off
Versions: 1 2 3 4 5 6 7 8 9 10 11 12 13 14 15 16 17 18 19 20 21 22 23 24 25 26 27 28 29 30 31 32 33 34 35 36 37 38 39 40 41 42 43 44 45 46 47 48 49 50

000
ASUS41 KCTP 060303
RWRCTP

REGIONAL WEATHER ROUNDUP
NATIONAL WEATHER SERVICE STATE COLLEGE PA
1000 PM EST THU MAR 05 2015

Note: "fair" indicates few or no clouds below 12,000 feet with no
significant weather and/or obstructions to visibility.

* = STATION THAT DOES NOT REPORT PRECIPITATION /E.G. RAIN...SNOW...ETC/
    THUNDER OR FOG.

PAZ002>004-007>009-013>016-020>023-029>032-060400-
WESTERN PENNSYLVANIA

CITY           SKY/WX    TMP DP  RH WIND       PRES   REMARKS
ERIE           CLEAR      7  -2  66 CALM      30.51R
MEADVILLE      MOCLDY     4  -3  73 CALM      30.43R
FRANKLIN*      CLEAR      3  -6  66 CALM      30.43S
NEW CASTLE     FAIR       4  -3  72 CALM      30.50R
BEAVER COUNTY  NOT AVBL
BUTLER*        CLEAR      5  -2  72 CALM      30.47R
PITTSBURGH INT PTCLDY     9  -1  64 N9        30.47R WCI  -4
PITTSBURGH     CLEAR      9  -2  61 N7        30.45R WCI  -2
INDIANA*       PTCLDY     7   0  72 NW5       30.48R WCI  -2
LATROBE        CLEAR      5   0  78 N3        30.49R
WASHINGTON CO* CLEAR      3   0  85 NW3       30.47S
$$

PAZ004>006-010>012-017>019-024>028-033>037-041-042-045-046-049>053-060400-
CENTRAL PENNSYLVANIA

CITY           SKY/WX    TMP DP  RH WIND       PRES   REMARKS
BRADFORD       CLOUDY     2  -5  72 W9        30.33R WCI -13
DUBOIS         CLEAR      4  -5  66 NW5       30.37R WCI  -5
CLEARFIELD     CLEAR      8  -4  58 W6        30.39R WCI  -2
JOHNSTOWN      CLEAR      6  -3  66 NW13      30.31R WCI -10
ALTOONA        CLEAR     11  -2  56 NW16      30.38R WCI  -6
STATE COLLEGE  CLEAR     13  -2  51 NW10      30.39R WCI   0
WILLIAMSPORT   CLEAR     15   0  51 N6        30.42R WCI   6
SELINSGROVE    CLEAR     15   0  51 NW7       30.42R WCI   5
FT INDIANTOWN  MOCLDY    19   1  45 VRB2      30.39R
CAPITAL CITY   PTCLDY    20   3  48 NW8       30.41R WCI  10
HARRISBURG     CLOUDY    20   5  52 NW8       30.40R WCI  10
YORK           MOCLDY    19   6  57 NW6       30.39R WCI  11
$$

PAZ038>040-043-044-047-048-054-055-060>062-067>071-060400-
EASTERN PENNSYLVANIA

CITY           SKY/WX    TMP DP  RH WIND       PRES   REMARKS
SCRANTON       PTCLDY    13   0  56 N12       30.36R WCI  -1
MOUNT POCONO   PTCLDY     9   0  67 NW16G24   30.22R WCI  -8
ALLENTOWN      MOCLDY    18   4  54 N12       30.38R WCI   5
QUAKERTOWN*    CLOUDY    18   7  62 N8        30.37R WCI   7
READING        CLOUDY    20   6  55 NW7       30.39R WCI  11
LANCASTER      CLOUDY    19  12  74 W3        30.38R
COATESVILLE    CLOUDY    21  10  63 NW8       30.36R WCI  12
POTTSTOWN      CLOUDY    19   9  65 N6        30.39R WCI  11
BLUE BELL      CLOUDY    21  14  73 CALM      30.36R
DOYLESTOWN     CLOUDY    17   8  67 NW7       30.35R WCI   8
WILLOW GROVE   NOT AVBL
NORTH PHILA    CLOUDY    22  10  60 NW12G21   30.39R WCI  10
PHILADELPHIA   CLOUDY    22  13  68 N12       30.38R WCI  10
$$



USA.gov is the U.S. government's official web portal to all federal, state and local government web resources and services.